Weather History For Prescott AZ
This page updates 5 minutes after midnight. GMT -7
Station: KPRC0 Rows: 26
| Year | Date | Temp (°F) | Tmin (°F) | Tmax (°F) | RH% | Prcp | Snow | Wind | Gust | Pres | Sun | Cloud |
|---|---|---|---|---|---|---|---|---|---|---|---|---|
| 2000 | 2000-04-27 | 67.8 | 50.0 | 84.0 | 20 | — | — | 14.3 | — | 29.88 | — | 0 |
| 2001 | 2001-04-27 | 60.4 | 45.0 | 73.0 | 44 | — | — | 10.2 | — | 29.91 | — | 2 |
| 2002 | 2002-04-27 | 49.6 | — | — | 50 | — | — | 20.0 | — | 29.85 | — | 3 |
| 2003 | 2003-04-27 | 58.6 | 42.8 | 71.6 | 30 | — | — | 14.8 | — | 29.80 | — | 0 |
| 2004 | 2004-04-27 | 63.9 | — | — | 21 | — | — | 9.9 | — | 30.00 | — | 0 |
| 2005 | 2005-04-27 | 55.2 | 43.0 | 64.0 | 40 | 0.0 | — | 17.7 | — | 29.87 | — | 0 |
| 2006 | 2006-04-27 | 53.4 | 43.0 | 62.1 | 33 | 0.0 | — | 14.4 | — | 29.76 | — | 2 |
| 2007 | 2007-04-27 | 64.2 | 45.0 | 81.0 | 28 | 0.0 | — | 7.1 | — | 29.90 | — | 0 |
| 2008 | 2008-04-27 | 57.9 | 42.1 | 71.1 | 11 | 0.0 | — | 8.9 | — | 30.08 | — | 0 |
| 2009 | 2009-04-27 | 54.3 | 37.0 | 66.9 | 23 | 0.0 | — | 11.6 | — | 29.88 | — | 0 |
| 2010 | 2010-04-27 | 62.1 | 46.0 | 75.9 | 28 | 0.0 | — | 13.5 | — | 29.81 | — | 0 |
| 2011 | 2011-04-27 | 53.8 | 37.0 | 70.0 | 20 | 0.0 | — | 11.0 | — | 29.97 | — | 0 |
| 2012 | 2012-04-27 | 56.1 | 39.9 | 72.0 | 51 | 0.0 | — | 7.8 | — | 29.91 | — | 0 |
| 2013 | 2013-04-27 | 61.2 | 39.9 | 78.1 | 21 | 0.0 | — | 10.8 | — | 30.02 | — | 0 |
| 2014 | 2014-04-27 | 51.4 | 39.9 | 62.1 | 35 | 0.0 | — | 15.3 | — | 29.80 | — | 1 |
| 2015 | 2015-04-27 | 55.0 | 39.0 | 71.1 | 41 | 0.0 | — | 10.6 | — | 29.91 | — | 1 |
| 2016 | 2016-04-27 | 54.1 | 39.9 | 64.9 | 38 | 0.3 | — | 16.4 | — | 29.72 | — | — |
| 2017 | 2017-04-27 | 63.9 | 57.0 | 73.0 | 30 | 0.0 | — | 20.0 | — | 29.59 | — | 0 |
| 2018 | 2018-04-27 | 68.2 | 53.1 | 82.0 | 25 | 0.0 | — | 13.1 | — | 29.81 | — | 1 |
| 2019 | 2019-04-27 | 66.6 | 50.0 | 79.0 | 26 | 0.0 | — | 14.1 | — | 29.81 | — | 1 |
| 2020 | 2020-04-27 | 67.3 | 55.0 | 80.1 | 28 | 0.0 | — | 15.5 | — | 29.89 | — | 0 |
| 2021 | 2021-04-27 | 44.8 | 39.0 | 53.1 | 71 | — | — | 15.3 | — | 29.77 | — | — |
| 2022 | 2022-04-27 | 59.9 | 45.0 | 73.0 | 20 | 0.0 | — | 16.0 | — | 29.81 | — | 0 |
| 2023 | 2023-04-27 | 61.0 | 39.9 | 78.1 | 26 | 0.0 | — | 12.5 | — | 29.88 | — | 0 |
| 2024 | 2024-04-27 | 50.4 | 43.0 | 57.9 | 57 | — | — | 14.4 | — | 29.78 | — | 4 |
| 2025 | 2025-04-27 | 49.3 | 39.9 | 59.0 | 37 | 0.0 | — | 16.1 | — | 29.83 | — | 0 |